Find Starlink 30404

NORAD ID: 57853 Int'l Des: 2023-141 Owner: SPXS Country: US Constellation: starlink operational
LEOCIRCULAR

現在のビュー

3D地球を読み込み中...

About Starlink 30404

Starlink 30404 (NORAD 57853) is a starlink constellation satellite (v2 mini) launched Sep 12, 2023 by SPXS of US. It operates in LEO, CIRCULAR orbit with a mass of 730.00 kg.

Starlink 30404について

説明を読み込み中...

次回通過

Passes for default location (London). Set your location on the main map for personalized predictions.

高度履歴

Loading altitude history...

軌道要素

1 57853U 23141P 26170.32168406 -.00000258 00000-0 34441-5 0 9992
2 57853 53.1599 171.6761 0001886 77.5008 282.6203 15.30188234155897
Epoch: Jun 19, 2026 • Age: 12 hours

現在のステータス

高度 480.7 km
速度 7.63 km/s
衛星直下点 -17.41°S, 161.29°E
打ち上げ日 Sep 12, 2023
運用期間 2.7 years
タイプ internet

技術仕様

分類 Payload
質量 730.00 kg
乾燥質量 700.00 kg
総質量 730.00 kg
長さ 0.30 m
直径 4.10 m
スパン 29.00 m
形状 Box + pan
製造者 SPXS
バスタイプ Starlink V2M
フェーズステータス In Orbit
所有者/国 SPXS/US

Most Searched